Flag for Canada Weather past 2 weeks in Inuvik, Northwest Territories, Canada

Now
36 °F

Passing clouds.


Feels Like: 30 °F
Forecast: 19 / 37 °F
Wind: 7 mph from South

Location: Inuvik


UV Index: 0 (Low)

Visibility: 15 mi


Pressure: 30.03 "Hg

Humidity: 56%

Dew point: 21 °F

Location of InuvikLocation

Historic Weather in Inuvik

°F

Inuvik temperature yesterday

Maximum temperature yesterday: 30 °F (at 4:00 PM)
Minimum temperature yesterday: 7 °F (at 7:00 AM)
Average temperature yesterday: 20 °F

Past Weeks' High & Low Weather Summary

 TemperatureHumidityPressure
High39 °F (Apr 14, 3:00 PM)93% (Apr 17, 2:48 AM)30.47 "Hg (Apr 17, 2:48 AM)
Low-20 °F (Apr 10, 5:00 AM)33% (Apr 14, 7:00 PM)29.71 "Hg (Apr 17, 11:00 PM)
Average17 °F67%30.07 "Hg
* Reported Apr 8 8:00 PM — Apr 23 8:00 PM, Inuvik, Weather by CustomWeather, © 2014

Note: Actual official high and low records may vary slightly from our data, if they occured in-between our weather recording intervals... More about our weather records

Advertising

Historic Weather Conditions — Data for Previous 24 hours

 ConditionsComfort  
Time TempWeatherWind HumidityBarometerVisibility
8:00 PM
Apr 23
36 °FPassing clouds.8 mph52%30.04 "Hg15 mi
7:00 PM36 °FScattered clouds.15 mph52%30.05 "Hg15 mi
6:00 PM36 °FPartly sunny.13 mph52%30.07 "Hg15 mi
5:00 PM34 °FPartly sunny.14 mph56%30.08 "Hg15 mi
4:00 PM34 °FChilly.6 mph56%30.09 "HgN/A
3:00 PM32 °FPartly sunny.14 mph51%30.10 "Hg15 mi
2:00 PM32 °FPassing clouds.14 mph51%30.11 "Hg15 mi
1:00 PM28 °FPassing clouds.12 mph59%30.13 "Hg15 mi
12:00 PM25 °FPassing clouds.12 mph63%30.14 "Hg15 mi
11:00 AM23 °FSunny.12 mph63%30.16 "Hg15 mi
10:00 AM21 °FSunny.8 mph63%30.17 "Hg15 mi
9:00 AM19 °FClear.13 mph63%30.18 "Hg15 mi
8:00 AM18 °FClear.10 mph68%30.19 "Hg15 mi
7:00 AM18 °FClear.13 mph68%30.20 "Hg15 mi
6:00 AM18 °FPassing clouds.14 mph68%30.20 "Hg15 mi
5:00 AM19 °FPassing clouds.14 mph63%30.21 "Hg15 mi
4:00 AM19 °FPassing clouds.8 mph63%30.22 "Hg15 mi
3:00 AM19 °FClear.10 mph68%30.22 "Hg15 mi
2:00 AM23 °FSunny.10 mph58%30.23 "Hg15 mi
1:00 AM23 °FSunny.12 mph63%30.23 "Hg15 mi
12:00 AM25 °FSunny.8 mph59%30.23 "Hg15 mi
11:00 PM
Apr 22
25 °FSunny.9 mph59%30.23 "Hg15 mi
10:00 PM28 °FSunny.10 mph51%30.24 "Hg15 mi
9:00 PM30 °FSunny.10 mph51%30.24 "Hg15 mi
Weather by CustomWeather, © 2014

See weather overview